www.pogodaiklimat.ru

Погода и климат >> Архив погоды >> Россия >> Северная Осетия >> Владикавказ


АРХИВ ПОГОДЫ в Владикавказе

Время (UTC), дата Ветер
(напр.,м/с)
 
Видим.   Явления Облачность Т
(С)
Тd
(С)
f
(%)
Тe
(С)
Тes
(С)
Комфортность P
(гПа)
Po
(гПа)
Тmin
(С)
Tmax
(С)
R
(мм)
R24
(мм)
S
(см)
00 12.08 штиль 0 10 км 3/3 600 м
[Sc]
+14.9 +12.0 83 +15 +15 прохладно 1018.2 937.6
03 12.08 Ю 1 50 км 3/1 600 м
[Sc Ac trans Cs]
+14.8 +11.6 81 +15 +16 холодно 1018.6 938.0 +13.5
06 12.08 З 1 50 км 1/1 1000 м
[Cu med, cong]
+22.3 +9.8 45 +24 +34 комфорт 1016.7 938.1
09 12.08 СВ 1 50 км 1/0
[Ac lent]
+24.5 +7.5 34 +25 +43 комфорт 1015.2 937.2
12 12.08 СЗ 2 50 км ясно +26.2 +6.1 28 +26 +36 жарко 1014.1 936.6
15 12.08 СЗ 3 50 км 3/0
[]
+24.7 +5.8 30 +25 +25 комфорт 1015.1 937.1 +26.7
18 12.08 Ю 2 10 км 8/0
[Ac trans]
+19.6 +10.8 57 +21 +21 комфорт 1017.4 938.1
21 12.08 ЮВ 2 10 км 8/0
[Ac trans]
+19.2 +9.1 52 +21 +21 комфорт 1017.2 937.7
00 13.08 Ю 1 10 км 3/0
[Ac trans]
+15.7 +9.7 67 +16 +16 по сезону 1018.3 937.8
03 13.08 Ю 1 50 км ясно +15.1 +8.8 66 +16 +16 прохладно 1019.1 938.4 +14.2
06 13.08 СЗ 1 50 км ясно +22.3 +9.8 45 +24 +35 комфорт 1017.2 938.5
09 13.08 З 2 20 км 1/1 1000 м
[Cu hum]
+25.1 +11.1 41 +26 +41 жарко 1015.4 937.6
12 13.08 СВ 1 20 км 3/3 1000 м
[Cu med, cong]
+26.5 +9.1 33 +27 +35 жарко 1014.5 937.1
15 13.08 СЗ 1 20 км 1/0
[Ac As]
+25.5 +7.1 31 +25 +26 комфорт 1014.3 936.6 +27.0
18 13.08 Ю 1 10 км ясно +18.8 +11.7 63 +21 +21 комфорт 1017.5 938.0
21 13.08 Ю 1 10 км ясно +16.1 +11.8 76 +17 +17 по сезону 1017.5 937.3
00 14.08 Ю 1 10 км ясно +15.4 +10.8 74 +16 +16 по сезону 1016.9 936.5
03 14.08 Ю 1 50 км ясно +15.4 +10.0 70 +16 +17 прохладно 1017.4 937.0 +14.3
06 14.08 СВ 1 20 км ясно +22.5 +11.1 48 +25 +36 комфорт 1015.0 936.6
09 14.08 В 2 50 км ясно +25.9 +10.6 38 +27 +44 жарко 1012.7 935.3
12 14.08 В 3 50 км ясно +26.7 +9.2 33 +27 +35 жарко 1011.7 934.6
15 14.08 В 2 50 км ясно +25.1 +8.1 34 +25 +26 комфорт 1011.8 934.2 +27.3
18 14.08 Ю 1 10 км ясно +19.5 +9.9 54 +22 +22 комфорт 1013.7 934.6
21 14.08 Ю 1 10 км ясно +17.5 +10.9 65 +19 +19 по сезону 1013.4 933.8
00 15.08 Ю 1 10 км ясно +14.9 +11.5 80 +15 +15 прохладно 1013.2 933.0
03 15.08 Ю 1 50 км ясно +15.6 +11.7 78 +16 +17 прохладно 1012.4 932.5 +14.0
06 15.08 СЗ 1 50 км ясно +23.0 +12.9 53 +26 +37 жарко 1010.4 932.5
09 15.08 СЗ 2 50 км ясно +26.7 +11.5 39 +28 +45 жарко 1009.1 932.2
12 15.08 ЮЗ 1 50 км ясно +28.4 +12.3 37 +30 +41 жарко 1007.6 931.3
15 15.08 З 1 50 км ясно +27.6 +12.1 38 +29 +29 жарко 1007.3 930.8 +28.8
18 15.08 Ю 1 10 км ясно +20.7 +15.1 70 +25 +25 комфорт 1009.1 930.8
21 15.08 штиль 0 10 км ясно +18.4 +14.7 79 +19 +19 по сезону 1009.3 930.4
00 16.08 Ю 1 10 км ясно +16.1 +13.8 86 +17 +17 по сезону 1009.4 929.9
03 16.08 Ю 1 50 км ясно +15.9 +13.4 85 +17 +17 прохладно 1010.0 930.4 +15.0
06 16.08 СЗ 1 50 км ясно +23.2 +16.2 65 +28 +39 душно 1008.2 930.6
09 16.08 СЗ 2 50 км 1/0
[Ac trans]
+29.1 +13.6 39 +31 +46 жарко 1005.7 929.7
12 16.08 СВ 1 50 км 3/0
[Ac trans]
+31.1 +12.5 32 +32 +41 жарко 1003.1 927.7
15 16.08 З 1 50 км 4/0
[Ac trans]
+28.5 +15.2 44 +31 +32 душно 1003.2 927.3 +31.8
18 16.08 ЮВ 1 10 км гроза, ливневой дождь 9/9 1000 м
[Cb cap]
+22.8 +18.9 79 +29 +29 очень
душно
1006.1 928.7
21 16.08 Ю 1 10 км слаб. ливневой дождь {гроза} 10/10 600 м
[Cb cap]
+21.1 +18.3 84 +25 +25 комфорт 1005.7 927.9
00 17.08 штиль 0 10 км в посл. час ливневой дождь {гроза} 10/10 600 м
[Cb calv]
+20.5 +18.3 87 +24 +24 комфорт 1007.8 929.6
03 17.08 Ю 1 50 км {ливн. осадки} 8/3 1500 м
[Sc Ac As Ci fib]
+20.1 +17.9 87 +24 +25 комфорт 1005.9 927.8 +19.8 1
06 17.08 В 1 20 км {ливн. осадки} 8/0
[Ac As Cs]
+22.8 +18.8 78 +29 +35 очень
душно
1007.4 929.9
09 17.08 СЗ 2 1000 м 8/8 600 м
[Cu Sc]
+28.1 +18.4 56 +33 +36 очень
душно
1005.7 929.7
12 17.08 З 1 10 км 10/10 600 м
[Sc]
+24.0 +18.6 72 +29 +29 душно 1007.8 930.6
15 17.08 ЮЗ 2 2000 м гроза, ливневой дождь 10/10 300 м
[Cb cap]
+20.8 +19.0 89 +26 +26 душно 1009.7 931.6 +28.5 3
18 17.08 штиль 0 10 км слаб. ливневой дождь {гроза} 10/10 300 м
[Cb cap]
+20.0 +18.7 92 +23 +23 комфорт 1011.3 932.8
21 17.08 Ю 1 10 км слаб. ливневой дождь 10/10 300 м
[Cb cap]
+19.9 +18.2 90 +24 +24 комфорт 1009.3 930.9
00 18.08 Ю 1 10 км слаб. ливневой дождь 10/10 300 м
[Cb cap]
+19.7 +17.9 89 +23 +23 комфорт 1007.7 929.4
03 18.08 штиль 0 10 км {ливн. осадки} 10/10 600 м
[Sc]
+19.6 +18.3 92 +22 +22 комфорт 1007.9 929.5 +19.2 14
06 18.08 З 1 10 км {ливн. осадки} 8/8 300 м
[Cb calv]
+22.5 +18.8 80 +28 +30 душно 1007.1 929.5
09 18.08 С 1 10 км 9/9 600 м
[Cb cap]
+23.1 +18.6 76 +29 +31 очень
душно
1007.1 929.7
12 18.08 З 2 10 км 9/8 600 м
[Cb cap Ac As]
+25.0 +18.8 68 +30 +31 душно 1006.6 929.8
15 18.08 З 2 10 км 9/8 600 м
[Sc Ac As]
+24.1 +18.6 71 +29 +29 душно 1008.3 931.0 +26.7
18 18.08 Ю 1 10 км 10/10 600 м
[Sc]
+21.4 +18.1 81 +26 +26 душно 1010.3 932.2
21 18.08 Ю 1 10 км 10/10 600 м
[Sc]
+20.8 +17.6 82 +26 +26 душно 1011.5 933.1

 

Местоположение метеостанции Владикавказ (Северная Осетия, Россия): широта 43.03 долгота 44.68 высота над уровнем моря 703 м.

В архиве по умолчанию представлена погода в Владикавказе за последнюю неделю. Архивные данные за месяц целиком и за предыдущие месяцы, начиная с января 2011 года, Вы можете получить, выбрав интересующий диапазон дат из раскрывающегося списка и нажав кнопку "Ввод!".


*Определитесь, кто Вы:
робот инопланетянин человек

Внимание! Время в таблицах - всемирное. Для получения местного времени необходимо прибавить поправку, которая равна 3 ч.

Смотрите также архив погоды в соседних городах и на ближайших метеорологических станциях:

Погода в Назрани (Ингушетия, Россия) (19 км)
Погода в Алагире (Северная Осетия, Россия) (35 км)
Погода на Рокском Перевале (Северная Осетия, Россия) (66 км)
Погода в Наре (Северная Осетия, Россия) (68 км)
Погода в Пасанаури (Грузия) (76 км)
Погода в Моздоке (Северная Осетия, Россия) (78 км)
Погода в Шатое (Чечня, Россия) (83 км)
Погода в Наурской (Чечня, Россия) (86 км)
Погода в Грозном (Чечня, Россия) (88 км)
Погода в Прохладный (Кабардино-Балкария, Россия) (95 км)

Пояснения к столбцам:

Ветер - указаны скорость ветра в м/с - средняя за 10 мин, порывы в срок и между сроками (в фигурных скобках) и направление, откуда дует ветер: С - северный, СВ - северо-восточный, В - восточный, ЮВ - юго-восточный, Ю - южный, ЮЗ - юго-западный, З - западный, СЗ - северо-западный.
Видимость - горизонтальная дальность видимости в метрах или километрах. При видимости от 1 до 10 км при отсутствии осадков обычно наблюдается дымка, при ухудшении видимости до 1 км и менее - туман. В сухую погоду видимость может ухудшаться дымом, пылью или мглою.
Явления - указаны атмосферные явления, наблюдавшиеся в срок или в последний час перед сроком; фигурными скобками обозначены явления, наблюдавшиеся между сроками (за 1-3 часа до срока); квадратными скобками обозначены град или гололедные отложения с указанием их диаметра в мм.
Облачность - указаны через наклонную черту общая и нижняя облачность в баллах и высота нижней границы облаков в метрах; квадратными скобками обозначены формы облаков: Ci - перистые, Cs - перисто-слоистые, Cc - перисто-кучевые, Ac - высококучевые, As - высокослоистые, Sc - слоисто-кучевые, Ns - слоисто-дождевые, Cu - кучевые, Cb - кучево-дождевые. Подробнее классификацию облаков см. в Атласе облаков (PDF).
T - Температура воздуха - температура, измеренная на высоте 2 м над землей.
Td - Температура точки росы - температура, при понижении до которой содержащийся в воздухе водяной пар достигнет насыщения.
f - Относительная влажность воздуха - влажноcть воздуха, измеренная на высоте 2 м над землей.
Te - Эффективная температура - температура, которую ощущает одетый по сезону человек в тени. Характеристика душности погоды. При расчете учитывается влияние влажности воздуха и скорости ветра на теплоощущения человека.
Tes - Эффективная температура на солнце - температура, которую ощущает человек, с поправкой на солнечный нагрев. Характеристика знойности погоды. Зависит от высоты солнца над горизонтом, облачности и скорости ветра. Ночью, в пасмурную погоду, а также при ветре 12 м/с и более поправка равна нулю.
P - Атмосферное давление - приведенное к уровню моря атмосферное давление.
Po - Атмосферное давление - измеренное на уровне метеостанции атмосферное давление.
Tmin - Минимальная температура - минимум температуры воздуха на высоте 2 м над землей.
Tmax - Максимальная температура - максимум температуры воздуха на высоте 2 м над землей.
R - Количество осадков - Количество выпавших осадков за период времени, мм. При наведении курсора мыши на число - период времени, за который выпало указанное количество осадков.
R24 - Количество осадков - Количество выпавших осадков за 24 часа, мм.
S - Снежный покров - Высота снежного покрова, см. При наведении курсора мыши на число - состояние снежного покрова и степень покрытия местности в баллах.